Location: Killam
(52.7910°N, 111.8608°W)
Time: 20:14:18
(UTC+00:00)

A-11 Canister half - Pass Details

Date: 16 February 2026
Orbit: 1525 x 1683 km, 47.3° (Epoch: 5 March)

Event Time Altitude Azimuth Distance (km) Brightness Sun altitude
Rises 02:02:01 0° 245° (WSW) 4,694 12.9 -12.9°
Reaches altitude 10° 02:05:07 10° 241° (WSW) 3,701 12.1 -13.4°
Maximum altitude 02:14:09 58° 166° (SSE) 1,737 9.2 -14.7°
Enters shadow 02:20:44 20° 95° (E) 2,960 9.8 -15.7°
Drops below altitude 10° 02:23:12 10° 91° (E) 3,710 - -16.1°
Sets 02:26:18 0° 87° (E) 4,706 - -16.6°
